• In Deutschland
  • Länderverzeichnis
  • Für 7 Tage
  • Wassertemperatur
  • Satellitenkarten
  • Wetterkarte
  • Widgets
  • user-avatar
    Anmelden

    Stündliche Wetter Shusha

    Heute, 21 Oktober, Samstag

    Zeit Temperatur Niederschläge Wind Luftdruck Luftfeuchtigkeit
    00:00 +10°C° 0 mm 1 m/S 661 mmHg 58%
    01:00 +10°C° 0 mm 1 m/S 661 mmHg 58%
    02:00 +10°C° 0 mm 1 m/S 661 mmHg 58%
    03:00 +10°C° 0 mm 1 m/S 661 mmHg 58%
    04:00 +9°C° 0 mm 1 m/S 660 mmHg 58%
    05:00 +9°C° 0 mm 1 m/S 660 mmHg 57%
    06:00 +9°C° 0 mm 1 m/S 660 mmHg 57%
    07:00 +11°C° 0 mm 1 m/S 661 mmHg 54%
    08:00 +12°C° 0 mm 1 m/S 661 mmHg 51%
    09:00 +14°C° 0 mm 1 m/S 662 mmHg 47%
    10:00 +15°C° 0 mm 1 m/S 662 mmHg 45%
    11:00 +16°C° 0 mm 2 m/S 662 mmHg 44%
    12:00 +17°C° 0 mm 2 m/S 661 mmHg 42%
    13:00 +17°C° 0 mm 2 m/S 661 mmHg 43%
    14:00 +17°C° 0 mm 2 m/S 661 mmHg 44%
    15:00 +17°C° 0 mm 2 m/S 660 mmHg 44%
    16:00 +15°C° 0 mm 2 m/S 660 mmHg 52%
    17:00 +14°C° 0 mm 1 m/S 659 mmHg 59%
    18:00 +11°C° 0 mm 0 m/S 659 mmHg 67%
    19:00 +12°C° 0 mm 1 m/S 659 mmHg 67%
    20:00 +11°C° 0 mm 1 m/S 659 mmHg 67%
    21:00 +11°C° 0 mm 1 m/S 659 mmHg 67%
    22:00 +11°C° 0 mm 1 m/S 659 mmHg 65%
    23:00 +11°C° 0 mm 1 m/S 659 mmHg 63%

    Morgen, 22 Oktober, Sonntag

    Zeit Temperatur Niederschläge Wind Luftdruck Luftfeuchtigkeit
    00:00 +10°C° 0 mm 1 m/S 658 mmHg 61%
    01:00 +10°C° 0 mm 1 m/S 658 mmHg 59%
    02:00 +10°C° 0 mm 1 m/S 658 mmHg 58%
    03:00 +10°C° 0 mm 1 m/S 658 mmHg 56%
    04:00 +9°C° 0 mm 1 m/S 658 mmHg 55%
    05:00 +9°C° 0 mm 1 m/S 658 mmHg 53%
    06:00 +9°C° 0 mm 1 m/S 658 mmHg 52%
    07:00 +11°C° 0 mm 1 m/S 658 mmHg 49%
    08:00 +12°C° 0 mm 1 m/S 659 mmHg 45%
    09:00 +14°C° 0 mm 1 m/S 659 mmHg 41%
    10:00 +15°C° 0 mm 2 m/S 659 mmHg 38%
    11:00 +16°C° 0 mm 2 m/S 659 mmHg 35%
    12:00 +17°C° 0 mm 3 m/S 659 mmHg 32%
    13:00 +17°C° 0 mm 3 m/S 658 mmHg 33%
    14:00 +17°C° 0 mm 3 m/S 658 mmHg 33%
    15:00 +17°C° 0 mm 3 m/S 657 mmHg 33%
    16:00 +15°C° 0 mm 2 m/S 657 mmHg 39%
    17:00 +14°C° 0 mm 1 m/S 657 mmHg 45%
    18:00 +12°C° 0 mm 1 m/S 656 mmHg 51%
    19:00 +12°C° 0 mm 1 m/S 656 mmHg 51%
    20:00 +11°C° 0 mm 1 m/S 656 mmHg 51%
    21:00 +11°C° 0 mm 1 m/S 656 mmHg 51%
    22:00 +11°C° 0 mm 1 m/S 656 mmHg 50%
    23:00 +9°C° 0 mm 2 m/S 656 mmHg 50%

    übermorgen, 23 Oktober, Montag

    Zeit Temperatur Niederschläge Wind Luftdruck Luftfeuchtigkeit
    00:00 +9°C° 0 mm 2 m/S 656 mmHg 49%
    01:00 +9°C° 0 mm 2 m/S 656 mmHg 49%
    02:00 +9°C° 0 mm 2 m/S 656 mmHg 48%
    03:00 +8°C° 0 mm 2 m/S 656 mmHg 47%
    04:00 +8°C° 0 mm 2 m/S 657 mmHg 47%
    05:00 +8°C° 0 mm 2 m/S 657 mmHg 47%
    06:00 +8°C° 0 mm 2 m/S 657 mmHg 47%
    07:00 +10°C° 0 mm 2 m/S 658 mmHg 42%
    08:00 +13°C° 0 mm 2 m/S 659 mmHg 38%
    09:00 +15°C° 0 mm 1 m/S 660 mmHg 33%
    10:00 +15°C° 0 mm 2 m/S 660 mmHg 32%
    11:00 +16°C° 0 mm 2 m/S 660 mmHg 31%
    12:00 +17°C° 0 mm 3 m/S 660 mmHg 29%
    13:00 +17°C° 0 mm 3 m/S 660 mmHg 30%
    14:00 +17°C° 0 mm 3 m/S 660 mmHg 31%
    15:00 +17°C° 0 mm 3 m/S 660 mmHg 32%
    16:00 +15°C° 0 mm 2 m/S 660 mmHg 39%
    17:00 +13°C° 0 mm 2 m/S 660 mmHg 46%
    18:00 +12°C° 0 mm 2 m/S 660 mmHg 52%
    19:00 +10°C° 0 mm 2 m/S 660 mmHg 58%
    20:00 +9°C° 0 mm 2 m/S 660 mmHg 64%
    21:00 +8°C° 0 mm 2 m/S 660 mmHg 70%
    22:00 +8°C° 0 mm 2 m/S 660 mmHg 72%
    23:00 +8°C° 0 mm 2 m/S 660 mmHg 75%

    24 Oktober, Dienstag

    Zeit Temperatur Niederschläge Wind Luftdruck Luftfeuchtigkeit
    00:00 +8°C° 0 mm 2 m/S 660 mmHg 77%
    01:00 +8°C° 0,1 mm 2 m/S 660 mmHg 78%
    02:00 +8°C° 0,1 mm 2 m/S 660 mmHg 78%
    03:00 +8°C° 0,1 mm 2 m/S 660 mmHg 79%
    04:00 +9°C° 0 mm 1 m/S 660 mmHg 79%
    05:00 +8°C° 0 mm 1 m/S 660 mmHg 79%
    06:00 +8°C° 0 mm 1 m/S 660 mmHg 79%
    07:00 +9°C° 0 mm 1 m/S 660 mmHg 74%
    08:00 +10°C° 0 mm 1 m/S 661 mmHg 70%
    09:00 +10°C° 0 mm 2 m/S 661 mmHg 66%
    10:00 +12°C° 0 mm 2 m/S 661 mmHg 62%
    11:00 +13°C° 0 mm 2 m/S 661 mmHg 58%
    12:00 +15°C° 0 mm 2 m/S 661 mmHg 54%
    13:00 +15°C° 0 mm 2 m/S 661 mmHg 54%
    14:00 +15°C° 0 mm 2 m/S 661 mmHg 54%
    15:00 +15°C° 0 mm 2 m/S 661 mmHg 54%
    16:00 +14°C° 0 mm 2 m/S 661 mmHg 60%
    17:00 +12°C° 0 mm 1 m/S 661 mmHg 67%
    18:00 +11°C° 0 mm 1 m/S 661 mmHg 73%
    19:00 +11°C° 0 mm 1 m/S 661 mmHg 72%
    20:00 +11°C° 0 mm 1 m/S 661 mmHg 71%
    21:00 +10°C° 0 mm 1 m/S 662 mmHg 70%
    22:00 +10°C° 0 mm 1 m/S 662 mmHg 70%
    23:00 +10°C° 0 mm 1 m/S 662 mmHg 70%

    25 Oktober, Mittwoch

    Zeit Temperatur Niederschläge Wind Luftdruck Luftfeuchtigkeit
    00:00 +10°C° 0 mm 1 m/S 662 mmHg 69%
    01:00 +10°C° 0 mm 1 m/S 662 mmHg 70%
    02:00 +10°C° 0 mm 1 m/S 662 mmHg 70%
    03:00 +9°C° 0 mm 1 m/S 662 mmHg 71%
    04:00 +9°C° 0 mm 1 m/S 662 mmHg 70%
    05:00 +9°C° 0 mm 1 m/S 662 mmHg 70%
    06:00 +9°C° 0 mm 1 m/S 662 mmHg 70%
    07:00 +11°C° 0 mm 1 m/S 663 mmHg 66%
    08:00 +12°C° 0 mm 1 m/S 664 mmHg 62%
    09:00 +14°C° 0 mm 1 m/S 664 mmHg 57%
    10:00 +15°C° 0 mm 2 m/S 664 mmHg 55%
    11:00 +16°C° 0 mm 2 m/S 664 mmHg 52%
    12:00 +17°C° 0 mm 3 m/S 664 mmHg 49%
    13:00 +17°C° 0 mm 3 m/S 664 mmHg 50%
    14:00 +17°C° 0 mm 3 m/S 664 mmHg 51%
    15:00 +17°C° 0 mm 3 m/S 663 mmHg 52%
    16:00 +16°C° 0 mm 2 m/S 663 mmHg 60%
    17:00 +14°C° 0 mm 1 m/S 663 mmHg 67%
    18:00 +12°C° 0 mm 1 m/S 663 mmHg 74%
    19:00 +12°C° 0 mm 1 m/S 663 mmHg 75%
    20:00 +12°C° 0 mm 1 m/S 663 mmHg 75%
    21:00 +12°C° 0 mm 1 m/S 664 mmHg 76%
    22:00 +11°C° 0 mm 1 m/S 664 mmHg 76%
    23:00 +11°C° 0 mm 1 m/S 663 mmHg 76%

    26 Oktober, Donnerstag

    Zeit Temperatur Niederschläge Wind Luftdruck Luftfeuchtigkeit
    00:00 +11°C° 0 mm 1 m/S 663 mmHg 77%
    01:00 +11°C° 0 mm 1 m/S 663 mmHg 76%
    02:00 +10°C° 0 mm 1 m/S 663 mmHg 76%
    03:00 +10°C° 0 mm 1 m/S 663 mmHg 75%
    04:00 +10°C° 0 mm 1 m/S 663 mmHg 75%
    05:00 +10°C° 0 mm 1 m/S 663 mmHg 74%
    06:00 +10°C° 0 mm 1 m/S 663 mmHg 73%
    07:00 +11°C° 0 mm 1 m/S 663 mmHg 69%
    08:00 +13°C° 0 mm 1 m/S 664 mmHg 66%
    09:00 +14°C° 0 mm 2 m/S 664 mmHg 62%
    10:00 +15°C° 0 mm 2 m/S 664 mmHg 59%
    11:00 +16°C° 0 mm 2 m/S 664 mmHg 56%
    12:00 +17°C° 0 mm 3 m/S 664 mmHg 53%
    13:00 +17°C° 0 mm 3 m/S 663 mmHg 54%
    14:00 +17°C° 0 mm 3 m/S 663 mmHg 54%
    15:00 +17°C° 0 mm 2 m/S 662 mmHg 55%
    16:00 +16°C° 0 mm 2 m/S 662 mmHg 61%
    17:00 +14°C° 0 mm 1 m/S 662 mmHg 68%
    18:00 +13°C° 0 mm 1 m/S 661 mmHg 74%
    19:00 +13°C° 0 mm 1 m/S 661 mmHg 73%
    20:00 +12°C° 0 mm 1 m/S 661 mmHg 72%
    21:00 +12°C° 0 mm 1 m/S 661 mmHg 72%
    22:00 +12°C° 0 mm 1 m/S 661 mmHg 71%
    23:00 +12°C° 0 mm 1 m/S 661 mmHg 71%
    Mehr zeigen